FENGYUN 1C DEB, 31237

Orbit data source: Space-Track

FENGYUN 1C DEB, 31237 is space debris in SSO originally from a launch on Mon, 10 May 1999 UTC launched from the Taiyaun Space Center, China (TSC). Fengyun 1C debris stems from the Chinese weather satellite Fengyun-1C, which was intentionally destroyed by a Chinese anti-satellite missile in 2007. This event dramatically increased the amount of space debris, with thousands of trackable fragments posing hazards to satellites and human spaceflight. The Fengyun 1C debris cloud has become a focal point in discussions about space sustainability and the need for international regulations to prevent the creation of new debris.

Loading next visibility...
Identifier
31237, 1999-025BLT
Orbit
SSO
Country
Flag of CNCN / PRC
Related business
Manufacturer
Unknown
Mission
Spacecraft
Bus & Motor
Unknown
Mass
Unknown
Launch date (UTC)
1999-05-10 (27 years ago)
Launch vehicle
Unknown
Launch site
Taiyaun Space Center, China (TSC)
Object type
Payload
Rocket body
Debris
Shape & HBR
Unknown shape, 0.1 m
Radar Cross Section
Small (<0.1 m²)

Expand to show TLE details & history
Last TLE update: 15 hours ago

TLE from 15 hours ago
0 FENGYUN 1C DEB
1 31237U 99025BLT 26120.46215150  .00001085  00000-0  40465-3 0  9992
2 31237  98.4587 120.7673 0087111 298.4260  60.8165 14.31828865992512
Epoch: 2026-04-30T11:05Z
TLE epoch observation values (Epoch: 2026-04-30T11:05:29.889Z)
Latitude
-0.00009°
Longitude
95.98436°
Altitude
758.545 km
Speed
7.491 km/s
True Right ascension
08h 03m 04s
True Declination
0° 00' 00"
Sunlit
Object was in daylight at epoch
Visualization orbit readout
Latitude
Unknown
Longitude
Unknown
Altitude
Unknown
Speed
Unknown
Apparent Right ascension
Unknown
Apparent Declination
Unknown
Sunlit
N/A
Visualization observer readout
Local Sidereal Time
09:45:49
Azimuth
Unknown
Elevation
Unknown
Doppler factor
Unknown
Orbital elements
Apogee altitude
845.134 km
Perigee altitude
720.375 km
Semi-major axis
7,160.892 km
Eccentricity
0.00871
Inclination
98.4587°
RAAN
120.7673°
Arg. of periapsis
298.426°
True anomaly
61.69262°
Mean anomaly
60.8165°
Eccentric anomaly
61.2541°
Mean motion
3.58173 °/min
Orbital period
100.51 mins
BSTAR
0.00040465
Loading maneuver chart data...
Computing Atmospheric mass density...

Documentation

Showing up to 5 results
|